Gallup, NM

7:30 PM MST on January 22, 2018 (GMT -0700)
Gallup Municipal

Weather History for KGUP - August, 2014

Change the Weather History Date:

Monday, August 25, 2014

  Actual Average Record
Temperature  
Mean Temperature 68 °F -  
Max Temperature 84 °F 82 °F 94 °F (1985)
Min Temperature 53 °F 49 °F 39 °F (2002)
Cooling Degree Days 2    
Growing Degree Days 18 (Base 50)    
Moisture  
Dew Point 41 °F    
Average Humidity 38    
Maximum Humidity 64    
Minimum Humidity 16    
Precipitation  
Precipitation 0.00 in - - ()
Sea Level Pressure  
Sea Level Pressure 29.77 in    
Wind  
Wind Speed 7 mph (SSW)    
Max Wind Speed 20 mph    
Max Gust Speed 36 mph    
Visibility 10 miles    
Events      
Averages and records for this station are not official NWS values.
T = Trace of Precipitation, MM = Missing Value Source: NWS Daily Summary

Daily Weather History Graph

Daily Weather History Graph

Search for Another Location

Airport or City:

Trip Planner

Search our weather history database for the weather conditions in past years. The results will help you decide how hot, cold, wet, or windy it might be!

Date:

Astronomy

Aug. 25, 2014 Rise Set
Actual Time 6:42 AM MDT 7:51 PM MDT
Civil Twilight 6:15 AM MDT 8:17 PM MDT
Nautical Twilight 5:44 AM MDT 8:49 PM MDT
Astronomical Twilight 5:11 AM MDT 9:21 PM MDT
Moon 6:48 AM MDT (8/25) 7:46 PM MDT (8/25)
Length of Visible Light 14h 02m
Length of Day
13h 09m
New Moon, 0% of the Moon is Illuminated
Aug 25
New Moon
Sep 2
First Quarter
Sep 8
Full
Sep 15
Last Quarter
Sep 24
New

Hourly Weather History & Observations

Time (MDT) Temp. Dew Point Humidity Pressure Visibility Wind Dir Wind Speed Gust Speed Precip Events Conditions
12:53 AM 63.0 °F 42.1 °F 46% 29.73 in 10.0 mi SW 3.5 mph - N/A   Clear
1:53 AM 57.9 °F 39.0 °F 49% 29.74 in 10.0 mi NE 4.6 mph - N/A   Clear
3:53 AM 55.0 °F 39.0 °F 55% 29.75 in 10.0 mi ENE 3.5 mph - N/A   Clear
4:53 AM 55.0 °F 41.0 °F 59% 29.75 in 10.0 mi Calm Calm - N/A   Clear
5:53 AM 54.0 °F 41.0 °F 62% 29.77 in 10.0 mi NE 3.5 mph - N/A   Clear
6:53 AM 53.1 °F 41.0 °F 64% 29.81 in 10.0 mi NE 4.6 mph - N/A   Clear
8:53 AM 64.9 °F 45.0 °F 48% 29.82 in 10.0 mi Variable 3.5 mph - N/A   Clear
9:53 AM 71.1 °F 46.9 °F 42% 29.80 in 10.0 mi SSW 8.1 mph - N/A   Clear
10:53 AM 73.9 °F 46.0 °F 37% 29.82 in 10.0 mi WSW 11.5 mph - N/A   Clear
11:53 AM 75.9 °F 44.1 °F 32% 29.77 in 10.0 mi SW 9.2 mph 21.9 mph N/A   Clear
12:53 PM 79.0 °F 41.0 °F 26% 29.75 in 10.0 mi South 9.2 mph 21.9 mph N/A   Clear
1:53 PM 80.1 °F 39.9 °F 24% 29.76 in 10.0 mi WSW 16.1 mph 20.7 mph N/A   Clear
2:53 PM 82.0 °F 34.0 °F 18% 29.76 in 10.0 mi West 11.5 mph - N/A   Clear
3:53 PM 80.1 °F 34.0 °F 19% 29.73 in 10.0 mi Calm Calm - N/A   Clear
4:53 PM 82.0 °F 32.0 °F 16% 29.70 in 10.0 mi South 13.8 mph 21.9 mph N/A   Clear
5:53 PM 82.0 °F 37.9 °F 21% 29.70 in 10.0 mi SW 11.5 mph - N/A   Clear
6:53 PM 79.0 °F 39.0 °F 24% 29.71 in 10.0 mi WSW 13.8 mph - N/A   Clear
7:25 PM 75.9 °F 44.1 °F 32% 30.17 in 10.0 mi South 19.6 mph 35.7 mph N/A   Squalls
9:53 PM 68.0 °F 46.9 °F 47% 29.75 in 10.0 mi South 11.5 mph - N/A   Mostly Cloudy
10:53 PM 69.1 °F 43.0 °F 39% 29.73 in 10.0 mi SW 8.1 mph - N/A   Mostly Cloudy
11:53 PM 66.9 °F 45.0 °F 45% 29.74 in 10.0 mi South 8.1 mph - N/A   Clear